Location: Zürich
(47.3769°N, 8.5417°E)
Time: 10:12:21
(UTC+02:00)

ISS - Pass Details

Date: 27 May 2021
Orbit: 417 x 422 km, 51.6° (Epoch: 13 June)

Event Time Altitude Azimuth Distance (km) Brightness Sun altitude
Rises 23:50:20 0° 290° (WNW) 2,367 0.7 -18.1°
Reaches altitude 10° 23:52:37 10° 277° (W) 1,501 -0.6 -18.2°
Enters shadow 23:55:02 25° 234° (SW) 883 -2.3 -18.4°
